Ely, MN

7:54 PM CST on December 13, 2017 (GMT -0600)
Ely Municipal

Weather History for KELO - January, 2014

Change the Weather History Date:

Wednesday, January 22, 2014

  Actual Average Record
Temperature  
Mean Temperature -9 °F -  
Max Temperature -4 °F 15 °F 35 °F (2017)
Min Temperature -14 °F -1 °F -32 °F (2013)
Degree Days  
Heating Degree Days 74    
Moisture  
Dew Point -13 °F    
Average Humidity 76    
Maximum Humidity 85    
Minimum Humidity 65    
Precipitation  
Precipitation 0.00 in - - ()
Sea Level Pressure  
Sea Level Pressure 30.02 in    
Wind  
Wind Speed 8 mph (NW)    
Max Wind Speed 17 mph    
Max Gust Speed 25 mph    
Visibility 8 miles    
Events Snow    
Averages and records for this station are not official NWS values.
T = Trace of Precipitation, MM = Missing Value Source: NWS Daily Summary

Daily Weather History Graph

Daily Weather History Graph

Search for Another Location

Airport or City:

Trip Planner

Search our weather history database for the weather conditions in past years. The results will help you decide how hot, cold, wet, or windy it might be!

Date:

Astronomy

Jan. 22, 2014 Rise Set
Actual Time 7:45 AM CST 4:52 PM CST
Civil Twilight 7:11 AM CST 5:26 PM CST
Nautical Twilight 6:33 AM CST 6:04 PM CST
Astronomical Twilight 5:57 AM CST 6:41 PM CST
Moon 11:58 PM CST (1/22) 10:17 AM CST (1/22)
Length of Visible Light 10h 15m
Length of Day
9h 06m
Waning Gibbous, 65% of the Moon is Illuminated
Jan 22
Waning Gibbous
Jan 23
Last Quarter
Jan 30
New
Feb 6
First Quarter
Feb 14
Full

Hourly Weather History & Observations

Time (CST) Temp. Windchill Dew Point Humidity Pressure Visibility Wind Dir Wind Speed Gust Speed Precip Events Conditions
12:13 AM -4.0 °F -14.6 °F -9.4 °F 78% 29.82 in 7.0 mi WSW 4.6 mph - N/A Snow Light Snow
12:32 AM -4.0 °F -14.6 °F -7.6 °F 85% 29.82 in 10.0 mi WSW 4.6 mph - N/A Snow Light Snow
12:53 AM -4.0 °F -16.3 °F -7.6 °F 85% 29.82 in 7.0 mi WSW 5.8 mph - N/A Snow Light Snow
1:13 AM -4.0 °F -14.6 °F -7.6 °F 85% 29.81 in 7.0 mi WSW 4.6 mph - N/A Snow Light Snow
1:33 AM -4.0 °F -14.6 °F -7.6 °F 85% 29.80 in 10.0 mi WSW 4.6 mph - N/A   Overcast
1:53 AM -4.0 °F -14.6 °F -7.6 °F 85% 29.80 in 10.0 mi WSW 4.6 mph - N/A Snow Light Snow
2:13 AM -4.0 °F -14.6 °F -7.6 °F 85% 29.80 in 10.0 mi WSW 4.6 mph - N/A Snow Light Snow
2:33 AM -4.0 °F -14.6 °F -7.6 °F 85% 29.80 in 10.0 mi WSW 4.6 mph - N/A Snow Light Snow
2:53 AM -4.0 °F -12.4 °F -7.6 °F 85% 29.80 in 10.0 mi West 3.5 mph - N/A   Overcast
3:13 AM -4.0 °F -12.4 °F -7.6 °F 85% 29.80 in 10.0 mi West 3.5 mph - N/A   Overcast
3:33 AM -4.0 °F -14.6 °F -7.6 °F 85% 29.79 in 10.0 mi WNW 4.6 mph - N/A   Overcast
3:53 AM -4.0 °F -14.6 °F -7.6 °F 85% 29.80 in 10.0 mi WNW 4.6 mph - N/A   Mostly Cloudy
4:13 AM -5.8 °F -18.4 °F -9.4 °F 84% 29.79 in 10.0 mi WNW 5.8 mph - N/A   Scattered Clouds
4:33 AM -5.8 °F -21.2 °F -9.4 °F 84% 29.80 in 10.0 mi WNW 8.1 mph - N/A   Scattered Clouds
4:53 AM -5.8 °F -21.2 °F -9.4 °F 84% 29.80 in 7.0 mi NW 8.1 mph - N/A   Scattered Clouds
5:13 AM -5.8 °F -19.9 °F -9.4 °F 84% 29.81 in 10.0 mi NW 6.9 mph - N/A   Clear
5:33 AM -5.8 °F -19.9 °F -9.4 °F 84% 29.82 in 4.0 mi NW 6.9 mph - N/A   Haze
5:53 AM -5.8 °F -23.4 °F -11.2 °F 77% 29.82 in 7.0 mi NW 10.4 mph - N/A   Clear
6:13 AM -7.6 °F -22.1 °F -11.2 °F 84% 29.83 in 10.0 mi NW 6.9 mph - N/A   Clear
6:33 AM -7.6 °F -24.6 °F -11.2 °F 84% 29.84 in 10.0 mi NW 9.2 mph 18.4 mph N/A   Clear
6:53 AM -7.6 °F -25.7 °F -13.0 °F 77% 29.84 in 7.0 mi NW 10.4 mph 16.1 mph N/A   Clear
7:13 AM -7.6 °F -24.6 °F -13.0 °F 77% 29.85 in 7.0 mi NW 9.2 mph 17.3 mph N/A   Clear
7:33 AM -9.4 °F -28.9 °F -14.8 °F 77% 29.86 in 7.0 mi NW 11.5 mph 19.6 mph N/A   Clear
7:53 AM -9.4 °F -27.9 °F -14.8 °F 77% 29.87 in 5.0 mi NW 10.4 mph 20.7 mph N/A   Haze
8:13 AM -9.4 °F -27.9 °F -14.8 °F 77% 29.88 in 5.0 mi NW 10.4 mph 17.3 mph N/A   Haze
8:32 AM -9.4 °F -25.6 °F -14.8 °F 77% 29.89 in 4.0 mi NW 8.1 mph 19.6 mph N/A   Haze
8:53 AM -9.4 °F -29.8 °F -14.8 °F 77% 29.90 in 7.0 mi NW 12.7 mph 18.4 mph N/A   Clear
9:13 AM -9.4 °F -29.8 °F -16.6 °F 71% 29.92 in 5.0 mi NW 12.7 mph 20.7 mph N/A   Haze
9:32 AM -9.4 °F -28.9 °F -16.6 °F 71% 29.93 in 5.0 mi NNW 11.5 mph 24.2 mph N/A   Haze
9:53 AM -9.4 °F -27.9 °F -16.6 °F 71% 29.94 in 4.0 mi NW 10.4 mph 23.0 mph N/A   Haze
10:13 AM -7.6 °F -24.6 °F -14.8 °F 71% 29.95 in 4.0 mi NNW 9.2 mph 23.0 mph N/A   Haze
10:32 AM -7.6 °F -26.6 °F -14.8 °F 71% 29.95 in 5.0 mi NNW 11.5 mph 20.7 mph N/A   Haze
10:53 AM -7.6 °F -29.1 °F -14.8 °F 71% 29.96 in 5.0 mi NNW 15.0 mph 23.0 mph N/A   Haze
11:12 AM -7.6 °F -29.1 °F -14.8 °F 71% 29.97 in 4.0 mi NNW 15.0 mph 25.3 mph N/A   Haze
11:33 AM -7.6 °F -30.5 °F -14.8 °F 71% 29.97 in 4.0 mi NNW 17.3 mph 25.3 mph N/A   Haze
11:53 AM -7.6 °F -27.5 °F -14.8 °F 71% 29.98 in 3.0 mi NNW 12.7 mph 21.9 mph N/A   Haze
12:12 PM -5.8 °F -23.4 °F -14.8 °F 65% 29.99 in 3.0 mi NNW 10.4 mph 20.7 mph N/A   Haze
12:33 PM -5.8 °F -25.2 °F -14.8 °F 65% 30.00 in 5.0 mi NNW 12.7 mph 20.7 mph N/A   Haze
12:53 PM -5.8 °F -22.4 °F -14.8 °F 65% 30.01 in 4.0 mi NNW 9.2 mph 24.2 mph N/A   Haze
1:13 PM -5.8 °F -24.4 °F -14.8 °F 65% 30.01 in 5.0 mi NNW 11.5 mph 20.7 mph N/A   Haze
1:31 PM -5.8 °F -26.0 °F -14.8 °F 65% 30.02 in 5.0 mi North 13.8 mph 23.0 mph N/A   Haze
1:53 PM -4.0 °F -23.7 °F -13.0 °F 65% 30.03 in 4.0 mi NNW 13.8 mph 25.3 mph N/A   Haze
2:13 PM -4.0 °F -23.0 °F -11.2 °F 71% 30.04 in 3.0 mi NNW 12.7 mph 23.0 mph N/A   Haze
2:32 PM -4.0 °F -24.5 °F -11.2 °F 71% 30.05 in 5.0 mi NNW 15.0 mph 21.9 mph N/A   Haze
2:53 PM -4.0 °F -23.7 °F -13.0 °F 65% 30.07 in 7.0 mi NNW 13.8 mph 23.0 mph N/A   Scattered Clouds
3:13 PM -4.0 °F -23.7 °F -13.0 °F 65% 30.08 in 5.0 mi NNW 13.8 mph 21.9 mph N/A   Haze
3:32 PM -4.0 °F -24.5 °F -13.0 °F 65% 30.10 in 7.0 mi NNW 15.0 mph 20.7 mph N/A   Scattered Clouds
3:53 PM -5.8 °F -22.4 °F -13.0 °F 71% 30.11 in 10.0 mi NNW 9.2 mph 19.6 mph N/A   Clear
4:13 PM -5.8 °F -21.2 °F -13.0 °F 71% 30.12 in 10.0 mi NNW 8.1 mph 17.3 mph N/A   Clear
4:32 PM -5.8 °F -24.4 °F -13.0 °F 71% 30.14 in 10.0 mi NNW 11.5 mph 20.7 mph N/A   Clear
4:53 PM -5.8 °F -24.4 °F -13.0 °F 71% 30.16 in 10.0 mi NNW 11.5 mph - N/A   Clear
5:13 PM -7.6 °F -25.7 °F -13.0 °F 77% 30.17 in 10.0 mi NNW 10.4 mph 17.3 mph N/A   Clear
5:32 PM -7.6 °F -25.7 °F -13.0 °F 77% 30.18 in 10.0 mi NNW 10.4 mph 19.6 mph N/A   Clear
5:53 PM -7.6 °F -25.7 °F -14.8 °F 71% 30.20 in 10.0 mi NNW 10.4 mph 18.4 mph N/A   Clear
6:13 PM -7.6 °F -22.1 °F -14.8 °F 71% 30.21 in 10.0 mi NNW 6.9 mph 19.6 mph N/A   Clear
6:33 PM -7.6 °F -24.6 °F -14.8 °F 71% 30.23 in 10.0 mi NNW 9.2 mph 17.3 mph N/A   Clear
6:53 PM -9.4 °F -22.7 °F -14.8 °F 77% 30.24 in 10.0 mi North 5.8 mph - N/A   Clear
7:13 PM -9.4 °F -25.6 °F -14.8 °F 77% 30.26 in 10.0 mi NNW 8.1 mph - N/A   Scattered Clouds
7:33 PM -9.4 °F -27.9 °F -14.8 °F 77% 30.27 in 10.0 mi NNW 10.4 mph - N/A   Overcast
7:53 PM -9.4 °F -26.8 °F -14.8 °F 77% 30.28 in 10.0 mi NNW 9.2 mph - N/A   Overcast
8:13 PM -9.4 °F -25.6 °F -14.8 °F 77% 30.28 in 10.0 mi NNW 8.1 mph - N/A   Overcast
8:33 PM -9.4 °F -25.6 °F -16.6 °F 71% 30.30 in 10.0 mi NNW 8.1 mph - N/A   Overcast
8:53 PM -11.2 °F -30.1 °F -16.6 °F 77% 30.30 in 10.0 mi NNW 10.4 mph 18.4 mph N/A   Scattered Clouds
9:13 PM -11.2 °F -29.0 °F -16.6 °F 77% 30.31 in 10.0 mi NNW 9.2 mph - N/A   Clear
9:33 PM -11.2 °F -30.1 °F -16.6 °F 77% 30.32 in 10.0 mi NNW 10.4 mph - N/A   Clear
9:53 PM -11.2 °F -29.0 °F -16.6 °F 77% 30.32 in 10.0 mi NNW 9.2 mph - N/A   Clear
10:13 PM -11.2 °F -29.0 °F -16.6 °F 77% 30.33 in 10.0 mi NNW 9.2 mph - N/A   Clear
10:33 PM -13.0 °F -28.6 °F -18.4 °F 77% 30.34 in 10.0 mi NNW 6.9 mph - N/A   Clear
10:53 PM -13.0 °F -28.6 °F -18.4 °F 77% 30.34 in 10.0 mi NNW 6.9 mph - N/A   Clear
11:13 PM -14.8 °F -32.2 °F -18.4 °F 84% 30.35 in 10.0 mi NW 8.1 mph - N/A   Clear
11:33 PM -14.8 °F -27.2 °F -18.4 °F 84% 30.36 in 10.0 mi NNW 4.6 mph - N/A   Clear
11:53 PM -14.8 °F -30.8 °F -20.2 °F 77% 30.37 in 10.0 mi NNW 6.9 mph - N/A   Clear